Temperature
0 1 1 2 2 2 2 2 2 2 2 2 2 2 2 2 2 2 3 3 3 3 4 4 4 5 5 5 5 5 5 5 5 5 5 5 5 5 5 5 5 5 5 5
0 1 1 1 2 2 2 2 1 1 1 1 2 1 1 1 1 2 2 2 2 3 3 3 4 4 4 4 4 4 4 4 4 4 4 4 4 4 4 4 4 4 4 4
-1 0 1 0 0 1 1 1 1 1 1 1 0 0 0 1 1 1 1 2 2 2 2 3 3 3 3 3 3 3 3 3 3 4 4 4 4 4 4 4 4 4 4 4
-2 -1 -0 -0 -1 -0 0 -0 -0 0 -0 -0 -0 0 0 0 0 0 1 1 1 1 2 2 2 2 2 2 2 2 2 3 3 3 3 3 3 3 3 3 3 3 3 3
-3 -2 -1 -1 -1 -2 -1 -1 -1 -1 -1 -1 -1 -1 -1 -0 -0 -0 0 0 1 1 1 1 1 2 2 2 2 2 2 2 2 2 2 2 2 2 2 2 2 2 2 2
-3 -2 -2 -2 -2 -2 -1 -2 -2 -1 -2 -2 -1 -2 -2 -1 -1 -0 -0 -0 0 0 1 1 1 1 1 1 1 1 1 1 1 1 2 2 2 2 1 2 1 1 1 1
-4 -4 -3 -3 -3 -2 -1 -2 -2 -1 -1 -2 -2 -2 -1 -1 -1 -1 -1 -1 -0 0 0 0 0 0 0 0 0 0 0 0 1 1 1 1 1 1 1 1 1 1 1 1
-5 -4 -3 -4 -3 -3 -3 -2 -2 -2 -2 -2 -2 -2 -2 -2 -2 -1 -1 -1 -1 -0 -0 -0 -0 -0 -0 -1 -0 -1 -0 -0 -0 0 0 0 -0 -0 -0 -0 -0 -0 -0 -0
-5 -4 -4 -4 -3 -3 -2 -3 -2 -2 -2 -2 -3 -3 -3 -3 -2 -2 -2 -1 -1 -1 -1 -1 -1 -1 -1 -1 -1 -1 -1 -1 -1 -1 -1 -1 -1 -1 -1 -1 -1 -1 -1 -1
-6 -5 -5 -4 -3 -3 -3 -3 -3 -3 -3 -3 -3 -3 -3 -3 -3 -2 -2 -2 -2 -2 -2 -2 -2 -2 -2 -2 -2 -2 -1 -1 -1 -1 -1 -1 -1 -1 -1 -1 -1 -1 -2 -1
-6 -6 -5 -4 -4 -3 -3 -3 -3 -3 -3 -3 -3 -3 -3 -3 -3 -3 -3 -3 -2 -2 -2 -2 -2 -2 -2 -2 -2 -2 -2 -2 -2 -2 -2 -2 -2 -2 -2 -2 -2 -2 -2 -2
-6 -5 -5 -5 -4 -3 -4 -4 -4 -4 -4 -4 -3 -4 -4 -4 -3 -3 -3 -3 -3 -3 -3 -3 -3 -3 -3 -3 -3 -3 -3 -3 -3 -3 -3 -3 -3 -3 -3 -3 -3 -3 -3 -3
-5 -4 -4 -4 -4 -4 -4 -4 -4 -4 -4 -4 -4 -4 -4 -4 -4 -3 -3 -3 -3 -3 -3 -4 -4 -3 -3 -3 -3 -3 -3 -3 -3 -3 -3 -3 -3 -3 -3 -3 -3 -3 -3 -3
-5 -5 -5 -5 -5 -4 -4 -4 -4 -4 -4 -4 -4 -4 -4 -4 -4 -4 -4 -4 -4 -4 -4 -4 -4 -4 -4 -4 -4 -4 -4 -3 -3 -3 -4 -4 -4 -4 -4 -4 -4 -4 -4 -4
-5 -5 -5 -5 -5 -5 -5 -5 -5 -5 -5 -5 -4 -4 -4 -4 -4 -4 -4 -5 -5 -5 -5 -5 -5 -4 -4 -4 -4 -4 -4 -4 -4 -4 -4 -4 -4 -4 -4 -4 -4 -4 -4 -4
-6 -5 -6 -6 -5 -5 -5 -5 -5 -5 -5 -5 -5 -5 -5 -5 -5 -5 -5 -5 -5 -5 -5 -5 -5 -5 -5 -5 -5 -5 -5 -4 -4 -4 -4 -4 -5 -5 -5 -5 -5 -5 -5 -4
-6 -6 -6 -6 -6 -6 -6 -6 -6 -6 -6 -5 -5 -5 -5 -5 -5 -5 -5 -5 -5 -5 -5 -5 -5 -5 -5 -5 -5 -5 -5 -5 -5 -5 -5 -5 -5 -5 -5 -5 -5 -5 -5 -5
-6 -6 -5 -6 -6 -6 -6 -6 -6 -6 -6 -6 -6 -6 -6 -6 -6 -6 -6 -6 -6 -6 -6 -6 -6 -6 -6 -6 -5 -5 -5 -5 -5 -5 -5 -5 -5 -5 -6 -6 -6 -5 -5 -6
-6 -6 -6 -6 -6 -6 -6 -6 -6 -6 -6 -6 -6 -6 -6 -6 -6 -6 -6 -6 -6 -6 -6 -6 -6 -6 -6 -6 -6 -6 -6 -6 -6 -6 -6 -6 -6 -6 -6 -6 -6 -6 -6 -6
-6 -6 -6 -6 -6 -6 -6 -6 -6 -6 -6 -7 -6 -6 -6 -6 -7 -7 -6 -6 -6 -6 -6 -6 -6 -6 -6 -6 -6 -6 -6 -6 -6 -6 -6 -6 -6 -6 -6 -6 -6 -6 -6 -6
-6 -6 -6 -6 -6 -6 -6 -6 -7 -7 -7 -7 -7 -7 -7 -7 -7 -7 -7 -7 -7 -7 -7 -7 -7 -7 -7 -7 -7 -7 -7 -7 -7 -7 -7 -7 -7 -7 -7 -7 -7 -7 -7 -7
-6 -6 -6 -6 -6 -6 -6 -7 -7 -7 -7 -7 -7 -7 -7 -7 -7 -7 -7 -7 -7 -7 -7 -7 -7 -7 -7 -7 -7 -7 -7 -7 -7 -7 -7 -7 -7 -7 -7 -7 -7 -7 -7 -7
-6 -6 -6 -6 -6 -7 -7 -7 -7 -7 -7 -7 -7 -7 -7 -7 -7 -7 -7 -7 -7 -7 -7 -7 -7 -8 -8 -8 -8 -8 -8 -8 -8 -8 -7 -7 -8 -8 -8 -8 -8 -8 -7 -7
-7 -7 -7 -7 -7 -7 -7 -7 -7 -7 -7 -8 -7 -8 -8 -8 -8 -8 -8 -8 -8 -8 -8 -8 -8 -8 -8 -8 -8 -8 -8 -8 -8 -8 -8 -8 -8 -8 -8 -8 -8 -8 -7 -7
-7 -7 -7 -7 -7 -7 -7 -7 -8 -8 -8 -8 -8 -8 -8 -8 -8 -8 -8 -8 -8 -8 -8 -8 -8 -8 -8 -8 -8 -8 -8 -8 -8 -8 -8 -8 -8 -8 -8 -8 -8 -8 -7 -7
-7 -7 -7 -7 -8 -8 -8 -8 -8 -8 -8 -8 -8 -8 -8 -8 -8 -8 -8 -8 -8 -8 -8 -8 -8 -9 -8 -8 -8 -8 -8 -8 -9 -8 -8 -8 -8 -8 -8 -8 -8 -8 -7 -7
-8 -8 -8 -8 -8 -8 -8 -8 -8 -8 -8 -8 -8 -8 -9 -9 -9 -9 -9 -9 -9 -9 -9 -9 -9 -9 -9 -9 -9 -9 -9 -9 -9 -9 -9 -8 -8 -8 -8 -8 -8 -8 -7 -7
Wind_Speed
2 3 2 2 3 2 3 5 5 5 6 6 4 3 3 2 2 2 3 3 3 2 2 3 3 3 3 3 3 3 4 4 3 2 3 3 2 2 2 2 2 2 2 1
2 1 1 2 4 2 3 3 4 3 6 4 2 1 2 2 3 2 2 2 2 2 3 3 3 2 3 3 2 3 4 3 3 3 3 3 2 2 2 2 1 1 1 1
2 3 3 3 4 3 2 2 4 6 6 4 2 3 3 3 2 2 2 2 2 2 2 2 2 2 3 2 3 3 3 3 2 3 3 2 2 2 2 1 1 1 0 0
0 3 2 4 2 1 1 1 1 2 2 3 3 2 2 2 2 1 1 1 1 2 2 2 2 2 2 3 3 3 3 2 2 2 2 2 2 2 1 1 1 1 1 1
1 0 3 4 3 2 1 2 2 2 2 1 2 3 1 0 1 1 1 1 1 1 2 2 2 2 3 3 3 3 2 2 2 2 2 2 1 1 1 1 1 1 1 1
2 2 4 4 5 5 0 2 3 1 3 3 1 1 3 1 0 0 0 1 1 2 3 3 2 3 4 3 3 2 1 1 2 2 2 2 1 1 1 1 1 1 2 2
2 2 4 5 7 3 3 5 4 2 4 3 2 4 3 0 1 1 1 1 2 3 3 2 2 4 4 3 1 0 1 2 2 2 2 1 1 1 0 1 1 1 2 2
2 2 5 4 1 1 4 3 1 1 2 2 1 1 1 1 1 1 2 2 3 3 2 2 2 4 3 1 0 1 2 2 2 2 2 1 1 1 1 1 1 1 2 3
4 5 4 2 2 3 2 2 2 1 1 2 2 1 1 1 1 1 1 2 2 3 3 2 2 3 3 1 1 2 2 2 2 2 2 1 1 1 0 0 0 1 2 2
2 4 4 4 3 3 2 2 2 1 1 2 2 2 1 1 1 1 1 1 2 3 3 2 2 2 1 1 2 2 2 1 1 1 1 1 1 0 0 1 1 1 2 2
3 5 4 4 4 4 3 2 1 1 0 1 2 2 2 1 1 1 1 1 2 2 2 1 1 2 1 1 2 2 2 1 1 1 1 1 1 1 1 2 2 2 2 2
6 5 4 5 5 3 2 2 1 0 0 0 2 2 2 2 1 1 1 1 2 2 2 1 1 1 1 1 2 3 2 1 0 0 0 0 1 2 3 2 4 4 4 4
6 4 4 5 4 2 1 2 1 1 2 1 1 2 2 1 1 1 1 1 2 1 1 1 1 1 1 0 1 2 2 1 1 1 0 1 1 1 2 4 4 4 5 5
3 2 3 4 3 3 2 1 0 0 0 1 1 1 2 1 1 1 1 1 1 1 1 1 1 0 1 0 1 1 1 1 1 1 1 1 1 1 1 2 3 3 4 6
3 3 4 3 2 1 1 1 2 1 1 1 1 1 2 2 1 1 0 1 1 1 1 1 0 1 1 0 1 1 1 1 1 1 1 1 1 1 1 2 2 3 3 4
2 1 1 2 2 2 1 0 0 1 1 1 0 0 1 1 1 0 0 1 1 1 0 0 1 1 1 1 1 1 1 1 1 1 1 0 0 0 1 1 2 2 3 4
2 3 2 3 3 3 2 2 2 2 1 1 1 1 1 1 1 0 0 0 1 0 1 1 1 2 1 1 1 1 1 1 1 0 0 0 0 1 1 1 2 2 3 4
5 5 5 5 4 3 3 2 2 2 2 2 1 1 1 1 1 1 1 0 1 1 1 2 1 1 0 0 1 1 1 1 1 1 1 1 1 1 1 1 2 3 3 4
4 4 4 4 4 3 3 3 3 2 2 1 1 1 1 1 1 1 1 0 1 2 2 2 1 0 0 1 0 1 1 1 1 1 1 1 2 1 1 2 2 3 3 3
3 3 3 3 3 3 3 3 2 2 2 1 2 1 1 1 1 1 1 1 2 2 2 2 1 1 1 1 1 1 2 2 2 1 1 1 1 2 2 2 2 3 3 3
3 3 3 3 3 3 3 3 2 3 2 2 2 3 2 2 1 1 1 2 3 2 2 2 1 1 1 2 2 1 2 2 2 2 2 2 2 2 2 2 3 3 3 3
4 4 4 4 3 3 3 2 3 3 2 2 2 2 2 2 1 1 2 3 3 3 1 1 1 2 2 2 1 2 2 2 2 2 2 2 2 3 3 3 3 3 3 3
4 4 4 4 4 3 2 2 3 3 3 3 3 3 3 3 2 2 3 2 2 3 1 2 2 3 3 1 1 2 2 2 2 2 2 2 3 3 3 3 3 3 3 3
4 4 4 3 3 2 3 3 3 3 3 3 3 3 3 2 2 2 3 3 3 3 2 2 4 3 3 1 1 1 2 2 2 2 2 3 3 3 3 3 3 3 4 4
4 4 4 4 4 4 4 3 2 2 2 2 3 3 3 3 3 2 2 2 3 3 1 2 4 3 1 1 1 2 2 2 2 2 2 2 3 3 3 3 3 4 4 4
4 4 4 5 4 4 3 3 3 3 3 2 2 2 2 2 2 2 2 2 3 3 2 2 2 2 1 2 2 2 2 3 3 3 3 3 3 3 3 3 4 4 4 4
3 3 3 2 3 3 3 3 3 3 3 3 3 2 2 2 2 2 2 2 2 2 2 2 2 2 2 2 2 2 2 3 3 3 3 3 3 3 3 4 4 4 4 4
Wind_Direction
251 252 223 244 259 210 190 190 192 214 217 227 223 210 194 175 159 137 131 124 128 132 126 114 107 103 103 102 102 110 114 115 117 107 99 99 107 119 123 132 160 169 164 174
336 2 106 318 312 261 230 203 194 210 249 234 225 162 169 181 177 178 177 166 150 136 131 125 125 119 107 104 105 110 115 117 116 109 101 96 100 103 99 94 96 115 158 195
297 327 21 307 288 247 228 228 188 217 233 180 170 199 203 199 187 196 193 163 156 154 153 152 149 132 126 126 109 105 110 111 116 115 110 105 101 89 79 65 61 37 2 285
337 34 223 250 325 300 191 311 275 209 188 176 194 230 195 166 167 184 192 171 161 153 138 125 114 108 107 105 107 108 108 106 103 109 112 106 101 93 68 47 30 337 328 320
127 172 277 304 334 351 261 300 322 185 188 152 89 50 18 357 129 177 210 203 177 154 135 113 113 123 118 110 107 107 110 117 117 116 110 103 95 72 45 41 8 334 314 322
126 156 234 264 301 311 227 285 308 191 190 191 119 216 247 272 41 74 68 85 112 100 98 98 103 119 114 112 105 106 116 118 111 114 114 106 91 34 13 25 339 326 318 313
164 212 266 288 301 338 153 251 293 226 205 204 215 224 224 247 15 102 93 79 105 103 101 110 115 116 114 107 110 118 108 104 88 86 97 104 86 43 38 26 8 335 325 321
151 188 253 307 17 171 240 288 298 243 205 187 198 199 182 143 125 106 93 93 112 111 97 88 109 118 116 113 87 81 96 98 82 73 71 65 82 56 48 42 356 326 320 316
196 215 250 259 226 257 256 273 290 261 241 166 167 194 203 162 140 117 109 112 121 121 102 72 84 119 130 128 90 91 89 88 81 70 60 60 86 96 72 55 283 294 295 299
256 271 280 293 303 317 319 273 279 258 223 163 180 200 194 172 144 105 84 95 111 110 102 74 61 79 111 108 103 105 100 96 96 84 52 29 9 339 281 271 280 296 309 308
261 282 303 301 297 293 299 307 323 341 195 195 170 182 182 174 167 146 104 75 105 118 114 98 82 75 58 101 120 120 121 122 109 84 77 19 354 325 303 276 265 281 281 279
241 243 239 269 288 296 297 297 271 194 327 215 174 184 171 163 166 141 117 94 99 107 113 110 97 77 32 106 138 139 137 143 177 196 249 339 353 346 348 327 327 317 307 304
243 257 247 265 293 312 295 294 274 208 195 209 210 175 159 157 157 129 114 111 126 134 141 139 116 77 359 72 132 143 160 178 193 220 258 287 314 330 331 339 345 342 340 338
251 265 278 279 281 302 306 305 26 67 147 167 173 150 136 138 130 125 145 163 132 124 123 128 120 329 320 12 112 132 151 185 197 205 228 248 260 281 296 312 326 332 342 346
268 245 240 263 282 313 340 58 62 25 14 15 78 127 140 144 162 220 237 124 101 100 104 120 145 295 316 76 121 144 161 189 201 210 226 233 246 263 301 310 312 316 325 334
283 278 239 247 267 285 317 53 192 288 306 308 342 248 179 170 184 237 48 118 130 158 248 221 269 283 295 153 140 147 201 239 236 200 209 211 267 303 314 317 317 319 320 321
227 256 252 253 262 270 264 250 235 243 262 266 252 239 166 136 108 44 36 67 152 256 294 271 275 296 309 165 168 187 202 235 267 243 177 217 264 274 284 294 303 309 308 308
229 238 237 230 234 248 259 251 239 243 247 252 240 195 171 180 209 255 274 352 25 355 318 287 277 293 276 194 186 194 199 201 196 202 221 249 269 268 278 289 301 306 311 316
232 233 239 238 233 228 236 240 244 249 248 241 216 209 213 216 218 235 240 196 232 278 292 287 303 360 286 272 242 180 189 197 214 224 224 259 291 288 281 284 291 297 302 309
232 227 223 233 236 222 230 235 233 246 248 228 204 201 214 239 238 229 225 246 249 251 259 276 276 247 246 248 265 195 201 210 215 225 232 235 251 268 271 276 281 287 291 295
232 231 224 226 239 241 231 225 216 229 237 217 205 212 223 242 244 224 225 270 282 265 257 273 270 245 242 243 250 202 204 207 212 219 229 241 255 266 271 276 281 285 288 291
227 222 225 224 225 246 250 232 221 223 222 216 217 214 213 237 247 249 243 245 264 276 274 245 244 257 258 256 200 200 209 214 220 222 228 238 249 260 267 272 276 281 283 284
226 222 222 223 221 229 245 232 221 217 217 217 216 219 224 234 231 230 264 262 250 270 265 242 255 263 265 245 190 204 214 222 231 236 239 243 250 256 264 271 275 279 281 283
226 223 222 217 199 201 231 243 233 224 220 226 227 222 218 231 250 240 240 268 275 275 258 261 266 265 265 200 193 213 226 235 242 246 248 251 255 259 263 267 272 277 279 284
220 218 212 199 204 221 229 230 226 224 221 230 236 233 225 218 224 243 245 255 265 275 260 264 269 272 265 210 215 226 231 239 244 247 245 252 257 261 263 265 267 271 274 277
215 216 219 219 219 220 214 207 214 221 215 223 233 225 220 217 218 225 233 246 253 267 261 248 255 262 248 235 236 238 239 258 271 270 259 257 259 261 263 264 268 269 273 275
210 213 215 225 231 221 212 209 214 220 215 212 225 227 217 216 217 220 228 238 243 248 247 244 240 236 233 234 236 241 247 248 248 251 254 255 254 255 258 263 269 272 273 274
Height
1479 1476 1477 1477 1475 1474 1477 1479 1482 1480 1480 1479 1479 1479 1480 1481 1481 1481 1482 1482 1483 1484 1485 1486 1488 1490 1491 1493 1494 1496 1498 1499 1501 1502 1504 1505 1506 1507 1508 1509 1509 1510 1510 1511
1481 1476 1475 1476 1475 1474 1475 1476 1478 1479 1480 1478 1479 1480 1480 1481 1481 1481 1481 1482 1482 1483 1484 1485 1486 1488 1489 1491 1492 1494 1495 1497 1499 1500 1501 1502 1503 1504 1505 1506 1506 1507 1507 1507
1485 1480 1477 1482 1479 1477 1476 1475 1476 1477 1477 1477 1479 1479 1480 1480 1480 1480 1481 1481 1481 1482 1483 1484 1485 1487 1488 1489 1491 1492 1494 1495 1496 1498 1499 1500 1501 1501 1502 1502 1502 1503 1503 1503
1490 1487 1488 1484 1480 1477 1476 1476 1476 1474 1475 1476 1477 1478 1479 1479 1479 1479 1480 1480 1480 1481 1482 1483 1484 1486 1487 1488 1489 1490 1491 1493 1494 1495 1496 1497 1498 1498 1499 1499 1499 1499 1499 1499
1494 1495 1488 1483 1481 1481 1480 1479 1477 1476 1475 1476 1477 1477 1478 1479 1478 1479 1479 1480 1480 1480 1481 1482 1483 1484 1485 1486 1487 1488 1489 1490 1491 1492 1493 1494 1495 1495 1496 1496 1496 1496 1496 1495
1496 1495 1491 1485 1481 1479 1481 1481 1476 1475 1475 1475 1476 1479 1478 1477 1478 1478 1478 1478 1479 1479 1480 1480 1482 1483 1484 1484 1485 1486 1487 1489 1489 1490 1491 1492 1492 1493 1493 1493 1493 1493 1492 1492
1497 1498 1490 1485 1481 1479 1484 1481 1476 1474 1474 1474 1474 1475 1475 1475 1475 1476 1476 1477 1477 1478 1478 1479 1480 1481 1482 1483 1484 1485 1486 1486 1487 1488 1489 1489 1490 1490 1490 1490 1490 1490 1489 1489
1498 1498 1493 1483 1481 1482 1480 1476 1474 1473 1472 1472 1472 1473 1473 1474 1474 1474 1475 1476 1476 1477 1477 1478 1479 1480 1480 1481 1482 1483 1484 1484 1485 1486 1487 1487 1487 1487 1487 1487 1487 1487 1486 1486
1494 1491 1484 1481 1479 1478 1476 1475 1473 1472 1472 1472 1472 1472 1472 1473 1473 1474 1474 1475 1475 1476 1476 1477 1478 1478 1478 1479 1480 1481 1482 1482 1483 1484 1484 1485 1485 1485 1485 1485 1484 1484 1483 1482
1489 1484 1481 1480 1478 1476 1475 1473 1472 1472 1471 1471 1471 1471 1471 1472 1472 1473 1473 1474 1474 1474 1475 1475 1476 1477 1477 1478 1479 1479 1480 1480 1481 1482 1482 1482 1483 1483 1482 1482 1482 1481 1480 1479
1486 1482 1479 1477 1476 1475 1473 1472 1471 1471 1470 1470 1470 1470 1470 1471 1471 1471 1472 1472 1473 1473 1473 1474 1475 1475 1476 1476 1477 1477 1478 1478 1479 1479 1480 1480 1480 1480 1480 1480 1479 1479 1478 1477
1482 1479 1479 1476 1475 1474 1472 1471 1470 1469 1469 1469 1469 1469 1469 1470 1470 1470 1471 1471 1472 1472 1472 1473 1473 1474 1474 1475 1475 1475 1476 1476 1477 1477 1477 1477 1477 1478 1477 1477 1477 1476 1475 1474
1477 1476 1475 1474 1473 1472 1470 1469 1469 1468 1468 1468 1468 1468 1468 1468 1469 1469 1470 1470 1470 1470 1471 1471 1472 1472 1472 1473 1473 1473 1474 1474 1474 1475 1475 1475 1475 1475 1474 1474 1474 1473 1472 1471
1474 1474 1473 1471 1471 1470 1469 1468 1467 1467 1467 1467 1467 1467 1467 1467 1468 1468 1468 1468 1469 1469 1469 1469 1470 1470 1470 1471 1471 1471 1472 1472 1472 1473 1473 1473 1473 1473 1472 1471 1470 1469 1469 1468
1471 1471 1470 1469 1468 1468 1467 1467 1466 1465 1465 1465 1466 1466 1466 1466 1466 1466 1467 1467 1467 1467 1467 1467 1468 1468 1468 1469 1469 1469 1469 1470 1470 1471 1471 1471 1471 1470 1469 1469 1468 1467 1466 1465
1468 1468 1468 1467 1466 1465 1465 1465 1464 1464 1464 1464 1464 1464 1464 1464 1464 1465 1465 1465 1465 1465 1465 1465 1465 1466 1466 1466 1467 1467 1467 1467 1468 1468 1468 1468 1468 1468 1467 1466 1466 1465 1464 1463
1466 1465 1464 1464 1463 1463 1463 1463 1462 1462 1462 1462 1462 1463 1463 1463 1463 1463 1463 1463 1463 1463 1463 1463 1463 1464 1464 1464 1464 1465 1465 1465 1465 1466 1466 1466 1466 1465 1465 1464 1463 1462 1461 1460
1464 1463 1463 1462 1461 1461 1461 1461 1461 1460 1460 1460 1461 1461 1461 1461 1461 1461 1461 1461 1461 1461 1461 1461 1461 1461 1462 1462 1462 1462 1462 1463 1463 1463 1463 1463 1463 1463 1462 1462 1461 1460 1458 1458
1461 1461 1461 1460 1460 1460 1459 1459 1459 1459 1459 1459 1459 1459 1459 1459 1459 1459 1459 1459 1459 1458 1459 1459 1459 1459 1459 1459 1460 1460 1460 1460 1460 1461 1461 1461 1461 1460 1460 1459 1458 1457 1456 1455
1458 1458 1458 1458 1458 1458 1457 1457 1457 1457 1457 1457 1457 1456 1456 1456 1457 1457 1456 1456 1456 1456 1456 1456 1456 1456 1456 1457 1457 1457 1457 1458 1458 1458 1458 1458 1458 1457 1457 1456 1455 1454 1453 1452
1456 1456 1456 1456 1456 1455 1455 1455 1455 1454 1454 1454 1454 1454 1454 1454 1454 1454 1453 1453 1454 1454 1453 1453 1453 1453 1454 1454 1454 1454 1454 1455 1455 1455 1455 1455 1454 1454 1454 1453 1452 1451 1450 1449
1453 1453 1453 1453 1453 1453 1453 1452 1452 1452 1452 1452 1452 1452 1451 1451 1451 1451 1451 1451 1451 1451 1450 1450 1450 1451 1451 1451 1451 1451 1451 1452 1452 1452 1452 1452 1451 1451 1450 1450 1449 1448 1447 1446
1450 1450 1450 1450 1450 1450 1450 1450 1450 1449 1449 1449 1449 1449 1449 1449 1449 1448 1448 1449 1448 1448 1448 1448 1448 1448 1448 1448 1448 1448 1448 1448 1449 1449 1449 1448 1448 1448 1447 1447 1446 1445 1444 1443
1447 1447 1447 1447 1447 1447 1447 1447 1447 1447 1446 1446 1446 1446 1446 1446 1446 1446 1446 1446 1446 1446 1445 1445 1445 1445 1445 1445 1445 1445 1445 1445 1445 1446 1446 1445 1445 1445 1444 1443 1443 1442 1441 1440
1443 1443 1444 1444 1444 1443 1443 1443 1443 1443 1443 1443 1443 1443 1443 1443 1443 1443 1443 1443 1443 1443 1442 1442 1442 1442 1442 1442 1442 1442 1442 1442 1442 1442 1442 1442 1442 1441 1441 1440 1439 1439 1438 1437
1439 1439 1439 1440 1440 1440 1440 1440 1440 1440 1440 1440 1440 1440 1440 1440 1440 1440 1440 1440 1440 1440 1440 1439 1439 1439 1439 1439 1439 1439 1439 1439 1439 1439 1439 1439 1439 1438 1438 1437 1436 1436 1435 1435
1435 1435 1435 1435 1436 1436 1436 1436 1436 1436 1437 1437 1437 1437 1437 1437 1437 1437 1437 1437 1437 1437 1437 1436 1436 1436 1436 1436 1436 1436 1436 1436 1436 1436 1436 1436 1436 1435 1435 1434 1434 1433 1433 1432